Location: Seattle
(47.6064°N, 122.3308°W)
Time: 14:45:29
(UTC-08:00)

S-56A Canister/Altair - Pass Details

Date: 07 October 2022
Orbit: 638 x 2494 km, 38.9° (Epoch: 03 December)

Event Time Altitude Azimuth Distance (km) Brightness Sun altitude
Exits shadow 04:18:35 47° 188° (S) 1,826 9.1 -30.0°
Drops below altitude 10° 04:25:19 10° 122° (ESE) 2,956 10.9 -29.0°
Sets 04:27:41 0° 116° (ESE) 3,710 11.5 -28.6°
